Location: Oulou
(10.7667°N, 12.5167°W)
Time: 05:41:06
(UTC+00:00)

Cosmos 2333 Rocket - Pass Details

Date: 20 September 2019
Orbit: 840 x 862 km, 70.8° (Epoch: 19 October)

Event Time Altitude Azimuth Distance (km) Brightness Sun altitude
Rises 19:16:48 0° 16° (NNE) 3,415 5.2 -8.0°
Reaches altitude 10° 19:20:49 10° 44° (NE) 2,485 4.3 -9.0°
Maximum altitude 19:23:16 13° 70° (ENE) 2,292 3.9 -9.6°
Enters shadow 19:24:35 12° 84° (E) 2,353 3.9 -9.9°
